Location: City of Moscow
(46.7306°N, 116.9989°W)
Time: 18:47:15
(UTC+00:00)

Meteor 1-10 Rocket - Pass Details

Date: 11 December 2025
Orbit: 835 x 908 km, 81.3° (Epoch: 15 January)

Event Time Altitude Azimuth Distance (km) Brightness Sun altitude
Rises 14:29:35 0° 346° (NNW) 3,529 7.1 -8.8°
Reaches altitude 10° 14:32:03 10° 345° (NNW) 2,591 6.4 -8.4°
Maximum altitude 14:37:56 70° 263° (W) 964 4.4 -7.5°
Drops below altitude 10° 14:43:48 10° 181° (S) 2,584 7.1 -6.6°
Sets 14:46:16 0° 179° (S) 3,519 7.8 -6.3°
